Location: Auckland
(36.8670°S, 174.7670°E)
Time: 13:17:49
(UTC+12:00)

Tiros 1 despin weight - Pass Details

Date: 22 July 2019
Orbit: 594 x 642 km, 48.2° (Epoch: 24 August)

Event Time Altitude Azimuth Distance (km) Brightness Sun altitude
Rises 05:38:57 0° 234° (SW) 2,879 - -21.5°
Reaches altitude 10° 05:41:17 10° 230° (SW) 1,978 - -21.1°
Exits shadow 05:44:19 39° 210° (SSW) 929 ? -20.5°
Maximum altitude 05:45:46 60° 149° (SSE) 711 ? -20.2°
Drops below altitude 10° 05:50:19 10° 68° (ENE) 1,993 ? -19.3°
Sets 05:52:40 0° 64° (ENE) 2,903 ? -18.8°
